Welcome to Northern Hawkes Bay. New Zealand.
PWS Header
      nz Flag



Hit Counter


W3C Valid W3C Valid logo


    Wairoa

Select any of the Stations below to visit their websites.










Historic Data from Weather Underground
Select the location of interest below. Wairoa is the default. Please have patience, this Data is slow to load in.
Northern Hawkes Bay Historical Data
Daily Summary for October 26, 2017 Units:  Metric    English   Both
« Previous Day
Next Day »
Daily Weekly Monthly Yearly Custom
  High: Low: Average:
Temperature: 22.8 °C 13.0 °C 16.2 °C
Dew Point: 14.0 °C 8.7 °C 11.4 °C
Humidity: 96% 49% 74%
Wind Speed: 19.5km/h 0.0km/h 5.1km/h
Wind Gust: 34.3km/h - -
Wind- - SW
Pressure: 1011.1 hPa 1004.6 hPa -
Precipitation: 0.0 mm    
Historical Graphs
 
 
Tabular Data for October 26, 2017
Time Temperature Dew Point Pressure Wind Wind Speed Wind Gust Humidity Rainfall Rate (Hourly) solar
00:02 14.3 °C 8.9 °C 1006.3 hPa Calm   2.6 km/h 70% 0.0 mm 0 W/m2
00:07 14.1 °C 8.9 °C 1006.3 hPa Calm   1.1 km/h 71% 0.0 mm 0 W/m2
00:12 13.9 °C 8.9 °C 1006.3 hPa Calm     72% 0.0 mm 0 W/m2
00:17 14.0 °C 8.8 °C 1006.3 hPa Calm   1.1 km/h 71% 0.0 mm 0 W/m2
00:22 14.0 °C 8.8 °C 1006.3 hPa Calm   1.1 km/h 71% 0.0 mm 0 W/m2
00:27 13.9 °C 8.9 °C 1006.3 hPa Calm   1.1 km/h 72% 0.0 mm 0 W/m2
00:32 13.9 °C 8.9 °C 1006.3 hPa Calm     72% 0.0 mm 0 W/m2
00:37 13.8 °C 9.1 °C 1006.3 hPa Calm     73% 0.0 mm 0 W/m2
00:42 13.8 °C 9.1 °C 1006.3 hPa Calm   1.1 km/h 73% 0.0 mm 0 W/m2
00:47 14.0 °C 8.8 °C 1006.3 hPa Calm   2.6 km/h 71% 0.0 mm 0 W/m2
00:52 14.1 °C 8.9 °C 1006.0 hPa Calm   3.5 km/h 71% 0.0 mm 0 W/m2
00:57 14.0 °C 9.1 °C 1006.0 hPa Calm   3.5 km/h 72% 0.0 mm 0 W/m2
01:02 13.9 °C 9.2 °C 1006.0 hPa Calm   5.0 km/h 73% 0.0 mm 0 W/m2
01:07 14.0 °C 9.1 °C 1006.0 hPa NNE 1.1 km/h 6.1 km/h 72% 0.0 mm 0 W/m2
01:12 14.3 °C 9.1 °C 1006.0 hPa North 1.1 km/h 7.2 km/h 71% 0.0 mm 0 W/m2
01:17 14.6 °C 9.2 °C 1005.6 hPa NNW 1.1 km/h 8.7 km/h 70% 0.0 mm 0 W/m2
01:22 14.8 °C 9.2 °C 1005.6 hPa NW 8.7 km/h 13.4 km/h 69% 0.0 mm 0 W/m2
01:27 14.9 °C 9.1 °C 1005.6 hPa NW 8.7 km/h 15.8 km/h 68% 0.0 mm 0 W/m2
01:32 15.2 °C 8.9 °C 1005.6 hPa NW 6.1 km/h 15.8 km/h 66% 0.0 mm 0 W/m2
01:37 15.2 °C 8.9 °C 1005.3 hPa NW 18.3 km/h 30.6 km/h 66% 0.0 mm 0 W/m2
01:42 15.3 °C 8.8 °C 1005.6 hPa NW 14.8 km/h 30.6 km/h 65% 0.0 mm 0 W/m2
01:47 15.3 °C 8.8 °C 1005.3 hPa NW 14.8 km/h 30.6 km/h 65% 0.0 mm 0 W/m2
01:52 15.2 °C 8.9 °C 1005.3 hPa NW 7.2 km/h 25.6 km/h 66% 0.0 mm 0 W/m2
01:57 15.2 °C 8.9 °C 1005.3 hPa NW 17.2 km/h 24.5 km/h 66% 0.0 mm 0 W/m2
02:02 15.2 °C 8.7 °C 1005.3 hPa NW 11.1 km/h 24.5 km/h 65% 0.0 mm 0 W/m2
02:07 15.2 °C 8.7 °C 1005.3 hPa NW 13.4 km/h 24.5 km/h 65% 0.0 mm 0 W/m2
02:12 15.3 °C 8.8 °C 1005.0 hPa NW 12.2 km/h 25.6 km/h 65% 0.0 mm 0 W/m2
02:17 15.2 °C 8.7 °C 1005.3 hPa NW 9.7 km/h 25.6 km/h 65% 0.0 mm 0 W/m2
02:22 15.0 °C 8.7 °C 1005.3 hPa NW 3.5 km/h 23.3 km/h 66% 0.0 mm 0 W/m2
02:27 14.9 °C 8.8 °C 1005.3 hPa NW 5.0 km/h 18.3 km/h 67% 0.0 mm 0 W/m2
02:37 14.9 °C 8.8 °C 1005.3 hPa North 7.2 km/h 17.2 km/h 67% 0.0 mm 0 W/m2
02:42 14.9 °C 8.8 °C 1005.3 hPa North 8.7 km/h 17.2 km/h 67% 0.0 mm 0 W/m2
02:47 14.9 °C 8.8 °C 1005.0 hPa NNW 8.7 km/h 15.8 km/h 67% 0.0 mm 0 W/m2
02:52 15.0 °C 8.7 °C 1005.3 hPa NNW 5.0 km/h 15.8 km/h 66% 0.0 mm 0 W/m2
02:57 15.1 °C 8.8 °C 1005.0 hPa NW 3.5 km/h 15.8 km/h 66% 0.0 mm 0 W/m2
03:02 15.0 °C 8.7 °C 1005.3 hPa North 5.0 km/h 15.8 km/h 66% 0.0 mm 0 W/m2
03:07 14.9 °C 9.1 °C 1005.0 hPa NNE 3.5 km/h 15.8 km/h 68% 0.0 mm 0 W/m2
03:12 14.7 °C 8.8 °C 1005.0 hPa North 3.5 km/h 17.2 km/h 68% 0.0 mm 0 W/m2
03:17 14.6 °C 9.0 °C 1005.0 hPa North 5.0 km/h 17.2 km/h 69% 0.0 mm 0 W/m2
03:22 14.4 °C 9.0 °C 1005.0 hPa NNW 5.0 km/h 20.9 km/h 70% 0.0 mm 0 W/m2
03:27 14.4 °C 9.0 °C 1005.0 hPa NNW 9.7 km/h 20.9 km/h 70% 0.0 mm 0 W/m2
03:32 14.4 °C 9.0 °C 1005.0 hPa North 8.7 km/h 20.9 km/h 70% 0.0 mm 0 W/m2
03:37 14.5 °C 9.1 °C 1005.0 hPa North 7.2 km/h 20.9 km/h 70% 0.0 mm 0 W/m2
03:42 14.4 °C 9.2 °C 1005.0 hPa North 7.2 km/h 17.2 km/h 71% 0.0 mm 0 W/m2
03:47 14.4 °C 9.2 °C 1005.0 hPa North 7.2 km/h 18.3 km/h 71% 0.0 mm 0 W/m2
03:52 14.4 °C 9.2 °C 1005.0 hPa North 6.1 km/h 18.3 km/h 71% 0.0 mm 0 W/m2
03:57 14.3 °C 9.1 °C 1005.0 hPa North 7.2 km/h 17.2 km/h 71% 0.0 mm 0 W/m2
04:02 14.2 °C 9.2 °C 1005.3 hPa North 7.2 km/h 17.2 km/h 72% 0.0 mm 0 W/m2
04:07 14.2 °C 9.2 °C 1005.0 hPa NNE 7.2 km/h 14.8 km/h 72% 0.0 mm 0 W/m2
04:12 14.2 °C 9.4 °C 1005.0 hPa North 3.5 km/h 14.8 km/h 73% 0.0 mm 0 W/m2
04:17 14.3 °C 9.6 °C 1005.0 hPa NNW 9.7 km/h 15.8 km/h 73% 0.0 mm 0 W/m2
04:22 14.3 °C 9.3 °C 1004.6 hPa North 9.7 km/h 19.5 km/h 72% 0.0 mm 0 W/m2
04:27 14.4 °C 9.6 °C 1004.6 hPa North 11.1 km/h 24.5 km/h 73% 0.0 mm 0 W/m2
04:32 14.4 °C 9.6 °C 1005.0 hPa North 7.2 km/h 24.5 km/h 73% 0.0 mm 0 W/m2
04:37 14.4 °C 9.6 °C 1004.6 hPa North 6.1 km/h 19.5 km/h 73% 0.0 mm 0 W/m2
04:42 14.4 °C 9.6 °C 1004.6 hPa North 8.7 km/h 19.5 km/h 73% 0.0 mm 0 W/m2
04:47 14.3 °C 9.7 °C 1005.0 hPa North 5.0 km/h 17.2 km/h 74% 0.0 mm 0 W/m2
04:52 14.2 °C 9.6 °C 1004.6 hPa North 8.7 km/h 15.8 km/h 74% 0.0 mm 0 W/m2
04:57 14.1 °C 9.6 °C 1004.6 hPa North 9.7 km/h 17.2 km/h 74% 0.0 mm 0 W/m2
05:02 14.1 °C 9.6 °C 1004.6 hPa NNW 9.7 km/h 17.2 km/h 74% 0.0 mm 0 W/m2
05:07 14.1 °C 9.6 °C 1004.6 hPa NNW 7.2 km/h 17.2 km/h 74% 0.0 mm 0 W/m2
05:12 14.1 °C 9.7 °C 1004.6 hPa North 3.5 km/h 15.8 km/h 75% 0.0 mm 0 W/m2
05:17 14.1 °C 9.7 °C 1004.6 hPa North 7.2 km/h 15.8 km/h 75% 0.0 mm 0 W/m2
05:22 14.1 °C 9.7 °C 1004.6 hPa NNE 3.5 km/h 15.8 km/h 75% 0.0 mm 0 W/m2
05:27 14.0 °C 9.7 °C 1005.0 hPa NNE 2.6 km/h 12.2 km/h 75% 0.0 mm 0 W/m2
05:32 13.8 °C 9.7 °C 1004.6 hPa NNE 2.6 km/h 11.1 km/h 76% 0.0 mm 0 W/m2
05:37 13.8 °C 9.7 °C 1004.6 hPa NNE 6.1 km/h 12.2 km/h 76% 0.0 mm 0 W/m2
05:54 13.9 °C 9.9 °C 1004.6 hPa North 9.7 km/h 15.8 km/h 77% 0.0 mm 0 W/m2
05:59 14.1 °C 9.7 °C 1004.6 hPa North 7.2 km/h 15.8 km/h 75% 0.0 mm 0 W/m2
06:04 14.1 °C 9.7 °C 1004.6 hPa NNW 7.2 km/h 17.2 km/h 75% 0.0 mm 0 W/m2
06:09 14.1 °C 9.7 °C 1004.6 hPa NNW 6.1 km/h 18.3 km/h 75% 0.0 mm 0 W/m2
06:14 14.1 °C 9.7 °C 1004.6 hPa NNW 2.6 km/h 18.3 km/h 75% 0.0 mm 2 W/m2
06:19 14.0 °C 9.8 °C 1004.6 hPa North 9.7 km/h 13.4 km/h 76% 0.0 mm 4 W/m2
06:24 14.1 °C 9.9 °C 1004.6 hPa NNW 6.1 km/h 13.4 km/h 76% 0.0 mm 8 W/m2
06:29 14.1 °C 9.9 °C 1004.6 hPa NNW 5.0 km/h 14.8 km/h 76% 0.0 mm 12 W/m2
06:34 14.1 °C 9.9 °C 1005.0 hPa NNW 8.7 km/h 14.8 km/h 76% 0.0 mm 42 W/m2
06:39 14.6 °C 10.4 °C 1005.0 hPa North 2.6 km/h 13.4 km/h 76% 0.0 mm 54 W/m2
06:44 14.9 °C 10.3 °C 1005.0 hPa North 3.5 km/h 13.4 km/h 74% 0.0 mm 32 W/m2
06:49 15.2 °C 10.4 °C 1005.3 hPa North 5.0 km/h 13.4 km/h 73% 0.0 mm 84 W/m2
06:54 15.6 °C 10.6 °C 1005.0 hPa North 7.2 km/h 23.3 km/h 72% 0.0 mm 97 W/m2
06:59 16.1 °C 10.4 °C 1005.0 hPa NNW 14.8 km/h 23.3 km/h 69% 0.0 mm 122 W/m2
07:04 16.6 °C 10.2 °C 1005.0 hPa NW 11.1 km/h 19.5 km/h 66% 0.0 mm 123 W/m2
07:10 16.9 °C 10.3 °C 1005.0 hPa NNW 8.7 km/h 20.9 km/h 65% 0.0 mm 101 W/m2
07:15 16.8 °C 10.2 °C 1005.0 hPa North 8.7 km/h 20.9 km/h 65% 0.0 mm 60 W/m2
07:20 16.4 °C 10.1 °C 1005.0 hPa North 3.5 km/h 18.3 km/h 66% 0.0 mm 56 W/m2
07:25 16.2 °C 10.1 °C 1005.3 hPa North 7.2 km/h 13.4 km/h 67% 0.0 mm 71 W/m2
07:30 16.2 °C 10.3 °C 1005.3 hPa North 3.5 km/h 13.4 km/h 68% 0.0 mm 82 W/m2
07:36 16.5 °C 10.8 °C 1005.3 hPa NNE 6.1 km/h 12.2 km/h 69% 0.0 mm 133 W/m2
07:41 17.1 °C 10.7 °C 1005.0 hPa North 2.6 km/h 12.2 km/h 66% 0.0 mm 95 W/m2
07:46 17.3 °C 10.7 °C 1005.0 hPa North 5.0 km/h 12.2 km/h 65% 0.0 mm 150 W/m2
07:51 17.6 °C 10.5 °C 1005.3 hPa Calm   13.4 km/h 63% 0.0 mm 179 W/m2
07:56 17.9 °C 10.8 °C 1005.6 hPa NNE 5.0 km/h 14.8 km/h 63% 0.0 mm 218 W/m2
08:01 18.6 °C 10.9 °C 1005.6 hPa NE 3.5 km/h 14.8 km/h 61% 0.0 mm 234 W/m2
08:06 19.6 °C 11.6 °C 1005.6 hPa ENE 3.5 km/h 9.7 km/h 60% 0.0 mm 284 W/m2
08:11 20.0 °C 10.9 °C 1005.6 hPa NNE 8.7 km/h 13.4 km/h 56% 0.0 mm 282 W/m2
08:16 19.5 °C 10.8 °C 1005.6 hPa North 7.2 km/h 17.2 km/h 57% 0.0 mm 230 W/m2
08:21 19.2 °C 11.0 °C 1005.6 hPa NNW 13.4 km/h 19.5 km/h 59% 0.0 mm 234 W/m2
08:26 19.0 °C 11.1 °C 1005.6 hPa North 9.7 km/h 23.3 km/h 60% 0.0 mm 235 W/m2
08:31 18.7 °C 11.3 °C 1005.6 hPa North 13.4 km/h 23.3 km/h 62% 0.0 mm 228 W/m2
08:36 18.8 °C 11.4 °C 1006.0 hPa North 12.2 km/h 21.9 km/h 62% 0.0 mm 262 W/m2
08:41 19.0 °C 11.6 °C 1006.0 hPa North 13.4 km/h 20.9 km/h 62% 0.0 mm 288 W/m2
08:46 19.3 °C 11.6 °C 1006.0 hPa NNW 8.7 km/h 20.9 km/h 61% 0.0 mm 202 W/m2
08:51 19.0 °C 11.6 °C 1006.0 hPa NNW 12.2 km/h 23.3 km/h 62% 0.0 mm 100 W/m2
08:56 18.3 °C 11.4 °C 1006.3 hPa NNW 5.0 km/h 23.3 km/h 64% 0.0 mm 125 W/m2
09:01 18.2 °C 11.5 °C 1006.3 hPa NNW 5.0 km/h 23.3 km/h 65% 0.0 mm 167 W/m2
09:06 18.3 °C 11.6 °C 1006.3 hPa NNW 6.1 km/h 18.3 km/h 65% 0.0 mm 194 W/m2
09:11 18.7 °C 12.0 °C 1006.3 hPa NNW 11.1 km/h 19.5 km/h 65% 0.0 mm 212 W/m2
09:16 19.4 °C 11.9 °C 1006.3 hPa NNW 15.8 km/h 23.3 km/h 62% 0.0 mm 398 W/m2
09:21 19.7 °C 11.7 °C 1006.0 hPa NNW 8.7 km/h 24.5 km/h 60% 0.0 mm 393 W/m2
09:26 19.7 °C 11.5 °C 1006.3 hPa NNW 9.7 km/h 24.5 km/h 59% 0.0 mm 417 W/m2
09:31 19.4 °C 11.7 °C 1006.3 hPa North 3.5 km/h 23.3 km/h 61% 0.0 mm 171 W/m2
09:36 19.9 °C 12.2 °C 1006.7 hPa North 11.1 km/h 19.5 km/h 61% 0.0 mm 371 W/m2
09:41 20.2 °C 12.2 °C 1006.7 hPa NNW 7.2 km/h 19.5 km/h 60% 0.0 mm 474 W/m2
09:46 20.6 °C 12.3 °C 1006.3 hPa NNW 6.1 km/h 17.2 km/h 59% 0.0 mm 453 W/m2
09:51 20.5 °C 11.7 °C 1006.7 hPa NNW 8.7 km/h 19.5 km/h 57% 0.0 mm 468 W/m2
09:56 20.5 °C 11.9 °C 1006.3 hPa NNW 8.7 km/h 21.9 km/h 58% 0.0 mm 467 W/m2
10:01 20.6 °C 12.1 °C 1006.7 hPa NNW 5.0 km/h 21.9 km/h 58% 0.0 mm 382 W/m2
10:06 21.0 °C 12.2 °C 1006.7 hPa NW 1.1 km/h 14.8 km/h 57% 0.0 mm 483 W/m2
10:11 21.2 °C 11.6 °C 1006.3 hPa WNW 14.8 km/h 18.3 km/h 54% 0.0 mm 501 W/m2
10:16 21.2 °C 11.3 °C 1006.3 hPa NW 7.2 km/h 23.3 km/h 53% 0.0 mm 519 W/m2
10:21 21.3 °C 11.3 °C 1006.7 hPa NW 1.1 km/h 23.3 km/h 53% 0.0 mm 543 W/m2
10:26 21.6 °C 11.6 °C 1006.7 hPa WNW 3.5 km/h 15.8 km/h 53% 0.0 mm 605 W/m2
10:31 22.2 °C 11.6 °C 1006.7 hPa Calm   15.8 km/h 51% 0.0 mm 729 W/m2
10:36 22.8 °C 12.2 °C 1006.7 hPa WNW 3.5 km/h 14.8 km/h 51% 0.0 mm 340 W/m2
10:41 22.3 °C 11.1 °C 1006.7 hPa NW 5.0 km/h 12.2 km/h 49% 0.0 mm 170 W/m2
10:46 21.8 °C 11.5 °C 1006.7 hPa Calm   11.1 km/h 52% 0.0 mm 139 W/m2
10:51 20.9 °C 11.6 °C 1006.7 hPa West 3.5 km/h 11.1 km/h 55% 0.0 mm 120 W/m2
10:56 20.3 °C 11.8 °C 1006.7 hPa SW 5.0 km/h 11.1 km/h 58% 0.0 mm 156 W/m2
11:01 20.1 °C 11.8 °C 1007.0 hPa SW 6.1 km/h 12.2 km/h 59% 0.0 mm 145 W/m2
11:06 19.9 °C 12.9 °C 1007.0 hPa SSW 2.6 km/h 13.4 km/h 64% 0.0 mm 114 W/m2
11:11 19.4 °C 13.6 °C 1007.0 hPa SSW 9.7 km/h 18.3 km/h 69% 0.0 mm 155 W/m2
11:16 18.9 °C 13.3 °C 1007.0 hPa South 1.1 km/h 18.3 km/h 70% 0.0 mm 129 W/m2
11:21 18.8 °C 12.8 °C 1007.3 hPa SSW 6.1 km/h 18.3 km/h 68% 0.0 mm 144 W/m2
11:26 19.1 °C 12.4 °C 1007.0 hPa SSW 6.1 km/h 15.8 km/h 65% 0.0 mm 196 W/m2
11:31 19.9 °C 13.1 °C 1007.3 hPa SSW 5.0 km/h 12.2 km/h 65% 0.0 mm 255 W/m2
11:36 19.9 °C 11.7 °C 1007.3 hPa SSW 9.7 km/h 18.3 km/h 59% 0.0 mm 701 W/m2
11:41 20.0 °C 10.9 °C 1007.3 hPa SSW 7.2 km/h 18.3 km/h 56% 0.0 mm 260 W/m2
11:46 19.9 °C 11.2 °C 1007.3 hPa SSW 8.7 km/h 19.5 km/h 57% 0.0 mm 309 W/m2
11:51 19.9 °C 10.9 °C 1007.3 hPa SW 11.1 km/h 19.5 km/h 56% 0.0 mm 201 W/m2
11:56 19.5 °C 11.8 °C 1007.3 hPa SW 19.5 km/h 33.1 km/h 61% 0.0 mm 258 W/m2
12:01 17.5 °C 12.8 °C 1007.7 hPa SSW 19.5 km/h 34.3 km/h 74% 0.0 mm 266 W/m2
12:06 16.7 °C 13.1 °C 1007.7 hPa SSW 13.4 km/h 34.3 km/h 79% 0.0 mm 509 W/m2
12:11 17.3 °C 13.6 °C 1007.7 hPa South 12.2 km/h 27.0 km/h 79% 0.0 mm 949 W/m2
12:16 17.4 °C 12.9 °C 1007.7 hPa South 13.4 km/h 29.4 km/h 75% 0.0 mm 383 W/m2
12:21 17.7 °C 13.0 °C 1007.7 hPa South 18.3 km/h 29.4 km/h 74% 0.0 mm 213 W/m2
12:40 17.9 °C 13.0 °C 1007.7 hPa South 12.2 km/h 23.3 km/h 73% 0.0 mm 681 W/m2
12:45 18.4 °C 13.7 °C 1008.0 hPa SSE 14.8 km/h 23.3 km/h 74% 0.0 mm 851 W/m2
12:50 17.8 °C 12.9 °C 1008.0 hPa SSE 12.2 km/h 21.9 km/h 73% 0.0 mm 350 W/m2
12:55 17.2 °C 12.6 °C 1008.0 hPa SSE 6.1 km/h 21.9 km/h 74% 0.0 mm 321 W/m2
13:00 17.4 °C 13.1 °C 1008.4 hPa South 5.0 km/h 19.5 km/h 76% 0.0 mm 261 W/m2
13:05 17.3 °C 13.1 °C 1008.4 hPa SSE 1.1 km/h 17.2 km/h 76% 0.0 mm 224 W/m2
13:10 17.6 °C 13.6 °C 1008.4 hPa SSE 9.7 km/h 17.2 km/h 77% 0.0 mm 915 W/m2
13:15 17.8 °C 13.5 °C 1008.4 hPa Calm   17.2 km/h 76% 0.0 mm 667 W/m2
13:20 18.0 °C 13.7 °C 1008.4 hPa SSE 6.1 km/h 17.2 km/h 76% 0.0 mm 234 W/m2
13:25 17.5 °C 13.2 °C 1008.4 hPa SSE 12.2 km/h 15.8 km/h 76% 0.0 mm 321 W/m2
13:30 16.9 °C 13.2 °C 1008.0 hPa South 14.8 km/h 19.5 km/h 79% 0.0 mm 684 W/m2
13:35 17.1 °C 13.4 °C 1008.4 hPa SSE 7.2 km/h 19.5 km/h 79% 0.0 mm 747 W/m2
13:40 17.7 °C 13.6 °C 1008.4 hPa South 13.4 km/h 19.5 km/h 77% 0.0 mm 810 W/m2
13:45 17.7 °C 13.6 °C 1008.0 hPa South 11.1 km/h 18.3 km/h 77% 0.0 mm 842 W/m2
13:50 18.2 °C 13.9 °C 1008.4 hPa South 11.1 km/h 18.3 km/h 76% 0.0 mm 855 W/m2
13:55 17.8 °C 13.3 °C 1008.4 hPa South 8.7 km/h 19.5 km/h 75% 0.0 mm 824 W/m2
14:00 17.8 °C 13.5 °C 1008.4 hPa South 6.1 km/h 19.5 km/h 76% 0.0 mm 836 W/m2
14:06 17.5 °C 13.4 °C 1008.4 hPa South 5.0 km/h 20.9 km/h 77% 0.0 mm 706 W/m2
14:11 17.5 °C 13.2 °C 1008.4 hPa South 9.7 km/h 20.9 km/h 76% 0.0 mm 690 W/m2
14:16 17.4 °C 12.9 °C 1008.4 hPa South 8.7 km/h 18.3 km/h 75% 0.0 mm 656 W/m2
14:21 17.7 °C 13.4 °C 1008.4 hPa South 13.4 km/h 19.5 km/h 76% 0.0 mm 563 W/m2
14:26 17.8 °C 13.5 °C 1008.4 hPa South 9.7 km/h 19.5 km/h 76% 0.0 mm 628 W/m2
14:31 17.9 °C 13.6 °C 1008.4 hPa South 11.1 km/h 19.5 km/h 76% 0.0 mm 268 W/m2
14:36 17.9 °C 14.0 °C 1008.4 hPa South 11.1 km/h 19.5 km/h 78% 0.0 mm 377 W/m2
14:41 17.9 °C 14.0 °C 1008.4 hPa South 9.7 km/h 19.5 km/h 78% 0.0 mm 191 W/m2
14:46 17.6 °C 13.3 °C 1008.4 hPa SSE 11.1 km/h 15.8 km/h 76% 0.0 mm 474 W/m2
14:51 17.0 °C 13.2 °C 1008.4 hPa SSE 5.0 km/h 15.8 km/h 78% 0.0 mm 270 W/m2
14:56 16.9 °C 13.2 °C 1008.4 hPa South 5.0 km/h 15.8 km/h 79% 0.0 mm 148 W/m2
15:01 17.5 °C 13.8 °C 1008.4 hPa South 7.2 km/h 13.4 km/h 79% 0.0 mm 370 W/m2
15:06 17.1 °C 12.8 °C 1008.4 hPa South 5.0 km/h 13.4 km/h 76% 0.0 mm 193 W/m2
15:11 16.7 °C 12.4 °C 1008.4 hPa SSE 7.2 km/h 11.1 km/h 76% 0.0 mm 153 W/m2
15:16 16.6 °C 12.6 °C 1008.4 hPa SSE 9.7 km/h 13.4 km/h 77% 0.0 mm 587 W/m2
15:21 17.7 °C 13.4 °C 1008.4 hPa South 2.6 km/h 13.4 km/h 76% 0.0 mm 200 W/m2
15:26 17.3 °C 12.4 °C 1008.4 hPa SSE 5.0 km/h 13.4 km/h 73% 0.0 mm 159 W/m2
15:31 17.0 °C 12.3 °C 1008.4 hPa SSE 3.5 km/h 11.1 km/h 74% 0.0 mm 167 W/m2
15:36 17.7 °C 13.0 °C 1008.0 hPa SSE 3.5 km/h 8.7 km/h 74% 0.0 mm 182 W/m2
15:41 17.7 °C 12.6 °C 1008.4 hPa SSE 2.6 km/h 13.4 km/h 72% 0.0 mm 431 W/m2
15:46 17.7 °C 12.6 °C 1008.0 hPa SSE 7.2 km/h 14.8 km/h 72% 0.0 mm 147 W/m2
15:51 17.2 °C 12.3 °C 1008.4 hPa SSE 6.1 km/h 14.8 km/h 73% 0.0 mm 550 W/m2
15:56 17.4 °C 12.5 °C 1008.0 hPa South 6.1 km/h 12.2 km/h 73% 0.0 mm 307 W/m2
16:01 17.6 °C 12.9 °C 1008.0 hPa SSE 6.1 km/h 12.2 km/h 74% 0.0 mm 177 W/m2
16:06 17.7 °C 13.0 °C 1008.0 hPa SSE 2.6 km/h 13.4 km/h 74% 0.0 mm 509 W/m2
16:11 18.9 °C 13.6 °C 1008.0 hPa South 3.5 km/h 13.4 km/h 71% 0.0 mm 481 W/m2
16:16 18.6 °C 12.8 °C 1008.0 hPa South 7.2 km/h 13.4 km/h 69% 0.0 mm 395 W/m2
16:21 18.5 °C 12.7 °C 1008.0 hPa South 3.5 km/h 13.4 km/h 69% 0.0 mm 488 W/m2
16:26 19.2 °C 13.4 °C 1008.0 hPa South 2.6 km/h 11.1 km/h 69% 0.0 mm 463 W/m2
16:31 19.6 °C 12.8 °C 1008.0 hPa South 5.0 km/h 9.7 km/h 65% 0.0 mm 439 W/m2
16:36 18.9 °C 12.7 °C 1008.0 hPa South 6.1 km/h 14.8 km/h 67% 0.0 mm 228 W/m2
16:41 18.3 °C 12.9 °C 1008.0 hPa South 2.6 km/h 14.8 km/h 71% 0.0 mm 422 W/m2
16:46 19.1 °C 13.3 °C 1008.0 hPa SSE 6.1 km/h 12.2 km/h 69% 0.0 mm 360 W/m2
16:51 18.7 °C 12.7 °C 1008.0 hPa Calm   9.7 km/h 68% 0.0 mm 153 W/m2
16:56 18.4 °C 12.8 °C 1008.0 hPa SE 3.5 km/h 9.7 km/h 70% 0.0 mm 388 W/m2
17:01 18.9 °C 13.1 °C 1008.0 hPa Calm   8.7 km/h 69% 0.0 mm 379 W/m2
17:06 19.1 °C 12.8 °C 1008.0 hPa SSE 6.1 km/h 11.1 km/h 67% 0.0 mm 348 W/m2
17:11 18.6 °C 13.1 °C 1008.0 hPa South 3.5 km/h 11.1 km/h 70% 0.0 mm 330 W/m2
17:16 18.8 °C 13.2 °C 1008.4 hPa South 5.0 km/h 9.7 km/h 70% 0.0 mm 289 W/m2
17:21 17.8 °C 12.7 °C 1008.0 hPa SSE 3.5 km/h 12.2 km/h 72% 0.0 mm 233 W/m2
17:26 17.5 °C 12.6 °C 1008.0 hPa South 3.5 km/h 12.2 km/h 73% 0.0 mm 283 W/m2
17:31 17.3 °C 12.6 °C 1008.4 hPa South 3.5 km/h 12.2 km/h 74% 0.0 mm 213 W/m2
17:36 17.0 °C 12.3 °C 1008.4 hPa South 2.6 km/h 12.2 km/h 74% 0.0 mm 220 W/m2
17:41 16.9 °C 12.7 °C 1008.4 hPa South 2.6 km/h 13.4 km/h 76% 0.0 mm 187 W/m2
17:46 17.2 °C 12.6 °C 1008.4 hPa SE 1.1 km/h 13.4 km/h 74% 0.0 mm 231 W/m2
17:51 17.4 °C 12.3 °C 1008.4 hPa Calm   7.2 km/h 72% 0.0 mm 132 W/m2
17:56 17.0 °C 12.1 °C 1008.4 hPa East 1.1 km/h 7.2 km/h 73% 0.0 mm 165 W/m2
18:01 17.0 °C 12.3 °C 1008.4 hPa SE 1.1 km/h 6.1 km/h 74% 0.0 mm 128 W/m2
18:06 16.6 °C 12.2 °C 1008.4 hPa SSE 8.7 km/h 12.2 km/h 75% 0.0 mm 130 W/m2
18:11 16.3 °C 12.3 °C 1008.4 hPa Calm   12.2 km/h 77% 0.0 mm 122 W/m2
18:16 16.3 °C 12.3 °C 1008.4 hPa Calm   12.2 km/h 77% 0.0 mm 113 W/m2
18:21 16.1 °C 11.9 °C 1008.7 hPa Calm   6.1 km/h 76% 0.0 mm 97 W/m2
18:26 15.9 °C 12.1 °C 1008.7 hPa SE 1.1 km/h 6.1 km/h 78% 0.0 mm 82 W/m2
18:31 15.8 °C 12.0 °C 1008.4 hPa Calm   5.0 km/h 78% 0.0 mm 83 W/m2
18:36 15.7 °C 12.1 °C 1008.4 hPa Calm   5.0 km/h 79% 0.0 mm 79 W/m2
18:41 15.6 °C 12.0 °C 1008.7 hPa SSE 2.6 km/h 6.1 km/h 79% 0.0 mm 71 W/m2
18:46 15.5 °C 12.1 °C 1008.7 hPa SSE 1.1 km/h 6.1 km/h 80% 0.0 mm 62 W/m2
18:51 15.6 °C 12.2 °C 1008.7 hPa SSE 2.6 km/h 7.2 km/h 80% 0.0 mm 54 W/m2
18:56 15.4 °C 12.0 °C 1008.7 hPa Calm   7.2 km/h 80% 0.0 mm 52 W/m2
19:01 15.2 °C 11.9 °C 1009.0 hPa SSE 3.5 km/h 9.7 km/h 81% 0.0 mm 42 W/m2
19:06 15.1 °C 12.2 °C 1009.0 hPa Calm   9.7 km/h 83% 0.0 mm 26 W/m2
19:11 15.0 °C 11.9 °C 1009.0 hPa Calm   6.1 km/h 82% 0.0 mm 17 W/m2
19:16 15.0 °C 12.2 °C 1009.0 hPa Calm   3.5 km/h 83% 0.0 mm 11 W/m2
19:21 14.9 °C 12.2 °C 1009.0 hPa Calm   3.5 km/h 84% 0.0 mm 9 W/m2
19:26 14.7 °C 12.2 °C 1009.4 hPa Calm   5.0 km/h 85% 0.0 mm 6 W/m2
19:31 14.6 °C 12.1 °C 1009.4 hPa Calm   5.0 km/h 85% 0.0 mm 4 W/m2
19:36 14.5 °C 12.0 °C 1009.4 hPa Calm   2.6 km/h 85% 0.0 mm 0 W/m2
19:41 14.4 °C 11.9 °C 1009.0 hPa Calm   1.1 km/h 85% 0.0 mm 0 W/m2
19:46 14.4 °C 11.9 °C 1009.4 hPa Calm   1.1 km/h 85% 0.0 mm 0 W/m2
19:51 14.4 °C 11.9 °C 1009.4 hPa Calm   1.1 km/h 85% 0.0 mm 0 W/m2
19:56 14.4 °C 12.1 °C 1009.4 hPa Calm   1.1 km/h 86% 0.0 mm 0 W/m2
20:01 14.3 °C 12.0 °C 1009.4 hPa Calm   1.1 km/h 86% 0.0 mm 0 W/m2
20:06 14.3 °C 12.0 °C 1009.4 hPa Calm   1.1 km/h 86% 0.0 mm 0 W/m2
20:11 14.3 °C 12.0 °C 1009.4 hPa Calm   1.1 km/h 86% 0.0 mm 0 W/m2
20:16 14.3 °C 12.2 °C 1009.4 hPa Calm   1.1 km/h 87% 0.0 mm 0 W/m2
20:21 14.2 °C 11.9 °C 1009.4 hPa Calm   1.1 km/h 86% 0.0 mm 0 W/m2
20:26 14.2 °C 12.1 °C 1009.4 hPa Calm   1.1 km/h 87% 0.0 mm 0 W/m2
20:32 14.1 °C 12.0 °C 1009.7 hPa Calm     87% 0.0 mm 0 W/m2
20:37 13.9 °C 11.9 °C 1009.7 hPa Calm     88% 0.0 mm 0 W/m2
20:42 13.7 °C 11.8 °C 1009.7 hPa Calm     88% 0.0 mm 0 W/m2
20:47 13.6 °C 11.7 °C 1009.7 hPa Calm     88% 0.0 mm 0 W/m2
20:52 13.6 °C 11.7 °C 1010.0 hPa Calm     88% 0.0 mm 0 W/m2
20:57 13.5 °C 11.6 °C 1009.7 hPa Calm     88% 0.0 mm 0 W/m2
21:02 13.5 °C 11.6 °C 1009.7 hPa Calm     88% 0.0 mm 0 W/m2
21:07 13.6 °C 12.0 °C 1010.0 hPa Calm   1.1 km/h 90% 0.0 mm 0 W/m2
21:12 13.5 °C 12.1 °C 1010.0 hPa Calm   1.1 km/h 91% 0.0 mm 0 W/m2
21:17 13.3 °C 11.9 °C 1010.0 hPa Calm   1.1 km/h 91% 0.0 mm 0 W/m2
21:22 13.3 °C 11.9 °C 1010.4 hPa Calm     91% 0.0 mm 0 W/m2
21:27 13.2 °C 11.9 °C 1010.0 hPa Calm     92% 0.0 mm 0 W/m2
21:32 13.2 °C 11.9 °C 1010.0 hPa Calm     92% 0.0 mm 0 W/m2
21:37 13.3 °C 12.2 °C 1010.0 hPa Calm     93% 0.0 mm 0 W/m2
21:42 13.3 °C 12.2 °C 1010.0 hPa Calm     93% 0.0 mm 0 W/m2
21:47 13.3 °C 12.2 °C 1010.0 hPa Calm     93% 0.0 mm 0 W/m2
21:52 13.3 °C 12.2 °C 1010.0 hPa Calm     93% 0.0 mm 0 W/m2
21:57 13.3 °C 12.2 °C 1010.4 hPa Calm     93% 0.0 mm 0 W/m2
22:02 13.3 °C 12.2 °C 1010.4 hPa Calm     93% 0.0 mm 0 W/m2
22:07 13.4 °C 12.3 °C 1010.4 hPa Calm     93% 0.0 mm 0 W/m2
22:12 13.4 °C 12.3 °C 1010.4 hPa Calm     93% 0.0 mm 0 W/m2
22:17 13.4 °C 12.3 °C 1010.4 hPa Calm     93% 0.0 mm 0 W/m2
22:22 13.3 °C 12.2 °C 1010.4 hPa Calm     93% 0.0 mm 0 W/m2
22:27 13.3 °C 12.2 °C 1010.4 hPa Calm     93% 0.0 mm 0 W/m2
22:32 13.2 °C 12.3 °C 1010.4 hPa Calm   1.1 km/h 94% 0.0 mm 0 W/m2
22:37 13.3 °C 12.3 °C 1010.7 hPa Calm   1.1 km/h 94% 0.0 mm 0 W/m2
22:42 13.3 °C 12.3 °C 1010.7 hPa Calm   1.1 km/h 94% 0.0 mm 0 W/m2
22:47 13.3 °C 12.3 °C 1010.7 hPa Calm   1.1 km/h 94% 0.0 mm 0 W/m2
22:52 13.3 °C 12.5 °C 1010.7 hPa Calm     95% 0.0 mm 0 W/m2
22:57 13.2 °C 12.4 °C 1010.7 hPa Calm   1.1 km/h 95% 0.0 mm 0 W/m2
23:02 13.2 °C 12.4 °C 1010.7 hPa WNW 2.6 km/h 3.5 km/h 95% 0.0 mm 0 W/m2
23:07 13.1 °C 12.3 °C 1010.7 hPa NW 2.6 km/h 5.0 km/h 95% 0.0 mm 0 W/m2
23:12 13.1 °C 12.3 °C 1010.7 hPa NW 3.5 km/h 5.0 km/h 95% 0.0 mm 0 W/m2
23:17 13.0 °C 12.2 °C 1010.7 hPa NNW 1.1 km/h 5.0 km/h 95% 0.0 mm 0 W/m2
23:22 13.0 °C 12.4 °C 1010.7 hPa North 1.1 km/h 3.5 km/h 96% 0.0 mm 0 W/m2
23:27 13.0 °C 12.4 °C 1010.7 hPa NNW 1.1 km/h 3.5 km/h 96% 0.0 mm 0 W/m2
23:32 13.0 °C 12.4 °C 1010.7 hPa North 1.1 km/h 3.5 km/h 96% 0.0 mm 0 W/m2
23:37 13.0 °C 12.4 °C 1011.1 hPa North 1.1 km/h 3.5 km/h 96% 0.0 mm 0 W/m2
23:42 13.0 °C 12.4 °C 1011.1 hPa North 1.1 km/h 3.5 km/h 96% 0.0 mm 0 W/m2
23:47 13.0 °C 12.4 °C 1011.1 hPa Calm   3.5 km/h 96% 0.0 mm 0 W/m2
23:52 13.0 °C 12.4 °C 1011.1 hPa NNW 2.6 km/h 3.5 km/h 96% 0.0 mm 0 W/m2
23:57 13.0 °C 12.4 °C 1011.1 hPa NNW 2.6 km/h 5.0 km/h 96% 0.0 mm 0 W/m2
Northern Hawkes Bay. New Zealand Historic Data
Compliments of Weather Underground - 2 mb